﻿_id,日時,平均風速(m/s),平均風向,最大瞬間風速(m/s),最大風速時風向,気温(℃),湿度(%),10分間移動積算雨量(mm),1時間移動積算雨量(mm),日雨量(mm),累計雨量(mm)
1,2024-04-01T00:00:00,0.5,東南東,1.8,東,12.1,88.3,0,0,0,0
2,2024-04-01T00:01:00,0.4,東南東,1.5,南南東,12,88.9,0,0,0,0
3,2024-04-01T00:02:00,0.3,東南東,1.5,南南東,12.2,89.5,0,0,0,0
4,2024-04-01T00:03:00,0.2,静穏,1.5,南南東,12.1,89.7,0,0,0,0
5,2024-04-01T00:04:00,0.3,東,1.5,南南東,12.2,89.8,0,0,0,0
6,2024-04-01T00:05:00,0.3,東,1.4,東,12.1,89.2,0,0,0,0
7,2024-04-01T00:06:00,0.5,東,2,東南東,12.1,89.4,0,0,0,0
8,2024-04-01T00:07:00,0.6,東,2,東南東,12,90.3,0,0,0,0
9,2024-04-01T00:08:00,0.7,東,2,東南東,12,91.3,0,0,0,0
10,2024-04-01T00:09:00,0.9,東,2.2,東南東,12,92.1,0,0,0,0
11,2024-04-01T00:10:00,1.1,東,2.2,東南東,12,92.4,0,0,0,0
12,2024-04-01T00:11:00,1.2,東南東,2.2,東南東,12.1,92.5,0,0,0,0
13,2024-04-01T00:12:00,1.2,東南東,2.2,東南東,12.1,93.2,0,0,0,0
14,2024-04-01T00:13:00,1.3,東南東,2.2,東南東,12,92.9,0,0,0,0
15,2024-04-01T00:14:00,1.4,南東,2.2,東南東,12,91.8,0,0,0,0
16,2024-04-01T00:15:00,1.3,南東,2.2,東南東,12,92.5,0,0,0,0
17,2024-04-01T00:16:00,1.2,南東,2.2,東南東,11.9,92.4,0,0,0,0
18,2024-04-01T00:17:00,1.1,南東,2.2,東南東,12,92.6,0,0,0,0
19,2024-04-01T00:18:00,0.9,南東,2.2,東南東,12,92.9,0,0,0,0
20,2024-04-01T00:19:00,0.8,南東,2.2,東南東,11.9,92.7,0,0,0,0
21,2024-04-01T00:20:00,0.7,南東,1.9,南東,11.8,93,0,0,0,0
22,2024-04-01T00:21:00,0.7,南東,2.1,南東,11.9,93.1,0,0,0,0
23,2024-04-01T00:22:00,0.8,南東,2.1,南東,11.8,93,0,0,0,0
24,2024-04-01T00:23:00,0.7,南東,2.1,南東,11.9,92,0,0,0,0
25,2024-04-01T00:24:00,0.7,南東,2.3,南南東,12,92.4,0,0,0,0
26,2024-04-01T00:25:00,0.8,南東,2.3,南南東,12,92.3,0,0,0,0
27,2024-04-01T00:26:00,0.8,南東,2.7,南東,12,92.2,0,0,0,0
28,2024-04-01T00:27:00,0.9,南東,3,南東,12.2,92.4,0,0,0,0
29,2024-04-01T00:28:00,1.1,南東,3,南東,12,91.3,0,0,0,0
30,2024-04-01T00:29:00,1.2,南東,3,南東,12,90.3,0,0,0,0
31,2024-04-01T00:30:00,1.3,南東,3,南東,12,90.5,0,0,0,0
32,2024-04-01T00:31:00,1.4,南東,3,南東,11.9,90.5,0,0,0,0
33,2024-04-01T00:32:00,1.4,南東,3,南東,11.9,90.1,0,0,0,0
34,2024-04-01T00:33:00,1.6,南東,3,南東,11.9,90,0,0,0,0
35,2024-04-01T00:34:00,1.7,南東,3.8,東南東,11.9,89.9,0,0,0,0
36,2024-04-01T00:35:00,1.9,南東,3.8,東南東,12,89.1,0,0,0,0
37,2024-04-01T00:36:00,1.9,南東,3.8,東南東,12,89.2,0,0,0,0
38,2024-04-01T00:37:00,2,南東,3.8,東南東,11.9,89.5,0,0,0,0
39,2024-04-01T00:38:00,2,南東,3.8,東南東,11.9,89.4,0,0,0,0
40,2024-04-01T00:39:00,2,南東,3.8,東南東,12,89.9,0,0,0,0
41,2024-04-01T00:40:00,2,東南東,3.8,東南東,11.9,90.1,0,0,0,0
42,2024-04-01T00:41:00,2.1,東南東,3.8,東南東,11.8,90.5,0,0,0,0
43,2024-04-01T00:42:00,2.1,東南東,3.8,東南東,11.8,90.7,0,0,0,0
44,2024-04-01T00:43:00,2.1,東南東,3.8,東南東,11.8,90.8,0,0,0,0
45,2024-04-01T00:44:00,2,東南東,3.1,東南東,11.8,90.8,0,0,0,0
46,2024-04-01T00:45:00,2,東南東,3.1,東南東,11.8,91.1,0,0,0,0
47,2024-04-01T00:46:00,2,東南東,3.1,東南東,11.8,91.2,0,0,0,0
48,2024-04-01T00:47:00,2,東南東,3.1,東南東,11.8,91.6,0,0,0,0
49,2024-04-01T00:48:00,1.9,東南東,3.1,東南東,11.8,91.8,0,0,0,0
50,2024-04-01T00:49:00,1.9,東南東,3.1,東南東,11.8,92.1,0,0,0,0
51,2024-04-01T00:50:00,1.9,東南東,2.8,東南東,11.8,91.9,0,0,0,0
52,2024-04-01T00:51:00,1.9,東南東,3.5,東南東,11.8,91.4,0,0,0,0
53,2024-04-01T00:52:00,1.9,東南東,3.5,東南東,11.8,91.2,0,0,0,0
54,2024-04-01T00:53:00,2,東南東,3.6,東,11.8,91.3,0,0,0,0
55,2024-04-01T00:54:00,2.1,東南東,3.6,東,11.8,91.4,0,0,0,0
56,2024-04-01T00:55:00,2.1,東南東,3.6,東,11.8,91.5,0,0,0,0
57,2024-04-01T00:56:00,2.1,東,3.6,東,11.8,91.6,0,0,0,0
58,2024-04-01T00:57:00,2.2,東,3.6,東,11.8,91.4,0,0,0,0
59,2024-04-01T00:58:00,2.2,東,3.6,東,11.8,91.4,0,0,0,0
60,2024-04-01T00:59:00,2.3,東,3.6,東,11.8,91.2,0,0,0,0
61,2024-04-01T01:00:00,2.3,東,3.6,東,11.8,90.8,0,0,0,0
62,2024-04-01T01:01:00,2.3,東南東,3.6,東,11.8,90.4,0,0,0,0
63,2024-04-01T01:02:00,2.2,東南東,3.6,東,11.8,90.4,0,0,0,0
64,2024-04-01T01:03:00,2,東南東,3.3,東,11.8,91.2,0,0,0,0
65,2024-04-01T01:04:00,1.9,東南東,3.1,東南東,12,91.9,0,0,0,0
66,2024-04-01T01:05:00,1.8,東南東,3.1,東南東,11.9,91.8,0,0,0,0
67,2024-04-01T01:06:00,1.8,東南東,3,東南東,11.8,91.3,0,0,0,0
68,2024-04-01T01:07:00,1.7,東南東,3,東南東,11.7,91.1,0,0,0,0
69,2024-04-01T01:08:00,1.7,東南東,3,東南東,11.8,90.7,0,0,0,0
70,2024-04-01T01:09:00,1.7,南東,3,東南東,11.7,90.6,0,0,0,0
71,2024-04-01T01:10:00,1.7,南東,3,東南東,11.7,89.9,0,0,0,0
72,2024-04-01T01:11:00,1.7,南東,2.8,東南東,11.7,89.9,0,0,0,0
73,2024-04-01T01:12:00,1.7,南東,2.8,東南東,11.7,89.6,0,0,0,0
74,2024-04-01T01:13:00,1.7,南東,2.8,東南東,11.7,89.8,0,0,0,0
75,2024-04-01T01:14:00,1.7,南東,2.8,東南東,11.8,89.7,0,0,0,0
76,2024-04-01T01:15:00,1.8,東南東,2.8,東南東,11.7,89.2,0,0,0,0
77,2024-04-01T01:16:00,1.9,東南東,4,東,11.7,88.2,0,0,0,0
78,2024-04-01T01:17:00,2,東南東,4,東,11.8,86.8,0,0,0,0
79,2024-04-01T01:18:00,2,東南東,4,東,11.8,85.9,0,0,0,0
80,2024-04-01T01:19:00,2,東南東,4,東,11.8,85.9,0,0,0,0
81,2024-04-01T01:20:00,2,東南東,4,東,11.8,86.2,0,0,0,0
82,2024-04-01T01:21:00,1.9,東南東,4,東,11.8,85.6,0,0,0,0
83,2024-04-01T01:22:00,2,東南東,4,東,11.8,86.2,0,0,0,0
84,2024-04-01T01:23:00,2,東南東,4,東,11.8,86.3,0,0,0,0
85,2024-04-01T01:24:00,2.1,東南東,4,東,11.8,85.9,0,0,0,0
86,2024-04-01T01:25:00,2.1,東南東,4,東,11.8,85.8,0,0,0,0
87,2024-04-01T01:26:00,2,東南東,4,東南東,11.9,85.6,0,0,0,0
88,2024-04-01T01:27:00,1.9,東南東,3.4,東,11.8,86.3,0,0,0,0
89,2024-04-01T01:28:00,1.8,東南東,3.4,東,11.8,86.7,0,0,0,0
90,2024-04-01T01:29:00,1.7,東南東,3.4,東,12.1,88.2,0,0,0,0
91,2024-04-01T01:30:00,1.7,東南東,3.4,東,11.8,87.3,0,0,0,0
92,2024-04-01T01:31:00,1.6,東南東,3.4,東,11.7,87.3,0,0,0,0
93,2024-04-01T01:32:00,1.6,東南東,3.4,東,11.7,87.7,0,0,0,0
94,2024-04-01T01:33:00,1.6,東南東,3.4,東,11.7,88.1,0,0,0,0
95,2024-04-01T01:34:00,1.5,東南東,2.5,東,11.7,88.2,0,0,0,0
96,2024-04-01T01:35:00,1.5,東南東,2.4,東,11.7,88.3,0,0,0,0
97,2024-04-01T01:36:00,1.6,東南東,2.6,東南東,11.6,88.4,0,0,0,0
98,2024-04-01T01:37:00,1.6,東南東,2.6,東南東,11.7,88.2,0,0,0,0
99,2024-04-01T01:38:00,1.7,東南東,3,東北東,11.7,87.3,0,0,0,0
100,2024-04-01T01:39:00,1.8,東南東,3,東北東,11.6,87.7,0,0,0,0
101,2024-04-01T01:40:00,1.8,東,3,東北東,11.6,88.3,0,0,0,0
102,2024-04-01T01:41:00,1.9,東,3,東北東,11.6,88.5,0,0,0,0
103,2024-04-01T01:42:00,1.9,東,3.4,東,11.6,88.1,0,0,0,0
104,2024-04-01T01:43:00,2,東,3.7,東南東,11.7,87.6,0,0,0,0
105,2024-04-01T01:44:00,2,東,3.7,東南東,11.7,87.2,0,0,0,0
106,2024-04-01T01:45:00,2,東,3.7,東南東,11.7,86.2,0,0,0,0
107,2024-04-01T01:46:00,2,東,3.7,東南東,11.6,87.1,0,0,0,0
108,2024-04-01T01:47:00,2,東,3.7,東南東,11.5,88.4,0,0,0,0
109,2024-04-01T01:48:00,2.1,東,3.7,東南東,11.5,89.4,0,0,0,0
110,2024-04-01T01:49:00,2.1,東,3.7,東南東,11.5,88.9,0,0,0,0
111,2024-04-01T01:50:00,2.1,東,3.7,東南東,11.5,88.4,0,0,0,0
112,2024-04-01T01:51:00,2.1,東,3.7,東南東,11.5,89.5,0,0,0,0
113,2024-04-01T01:52:00,2.1,東,3.7,東南東,11.5,89.4,0,0,0,0
114,2024-04-01T01:53:00,2.1,東,3.7,東,11.5,89.1,0,0,0,0
115,2024-04-01T01:54:00,2,東,3.4,東南東,11.5,88.8,0,0,0,0
116,2024-04-01T01:55:00,2.1,東,3.7,東南東,11.5,89,0,0,0,0
117,2024-04-01T01:56:00,2.2,東,3.7,東南東,11.5,88,0,0,0,0
118,2024-04-01T01:57:00,2.3,東,3.7,東南東,11.5,87.5,0,0,0,0
119,2024-04-01T01:58:00,2.3,東,3.7,東南東,11.5,87.1,0,0,0,0
120,2024-04-01T01:59:00,2.4,東,3.7,東南東,11.6,86.7,0,0,0,0
121,2024-04-01T02:00:00,2.4,東,3.7,東南東,11.6,86.6,0,0,0,0
122,2024-04-01T02:01:00,2.4,東,3.7,東南東,11.6,85,0,0,0,0
123,2024-04-01T02:02:00,2.5,東,4.6,東南東,11.6,84.2,0,0,0,0
124,2024-04-01T02:03:00,2.5,東,4.6,東南東,11.7,83.6,0,0,0,0
125,2024-04-01T02:04:00,2.6,東,4.6,東南東,11.7,83.3,0,0,0,0
126,2024-04-01T02:05:00,2.6,東,4.6,東南東,11.8,82.4,0,0,0,0
127,2024-04-01T02:06:00,2.6,東,4.6,東南東,11.8,82.1,0,0,0,0
128,2024-04-01T02:07:00,2.7,東,4.6,東南東,11.7,82,0,0,0,0
129,2024-04-01T02:08:00,2.7,東,4.6,東南東,11.8,81.8,0,0,0,0
130,2024-04-01T02:09:00,2.8,東,4.6,東南東,11.7,81.9,0,0,0,0
131,2024-04-01T02:10:00,2.8,東,4.6,東南東,11.7,81.9,0,0,0,0
132,2024-04-01T02:11:00,3,東,4.8,東南東,11.7,81.6,0,0,0,0
133,2024-04-01T02:12:00,3,東,5.4,東,11.7,82,0,0,0,0
134,2024-04-01T02:13:00,3.2,東,5.4,東,11.7,82,0,0,0,0
135,2024-04-01T02:14:00,3.3,東,5.4,東,11.7,82.5,0,0,0,0
136,2024-04-01T02:15:00,3.4,東,5.4,東,11.7,82.3,0,0,0,0
137,2024-04-01T02:16:00,3.4,東,5.4,東,11.7,82.4,0,0,0,0
138,2024-04-01T02:17:00,3.4,東,5.4,東,11.7,82.5,0,0,0,0
139,2024-04-01T02:18:00,3.3,東,5.4,東,11.6,82.5,0,0,0,0
140,2024-04-01T02:19:00,3.3,東,5.4,東,11.6,82.7,0,0,0,0
141,2024-04-01T02:20:00,3.2,東,5.4,東,11.6,82.6,0,0,0,0
142,2024-04-01T02:21:00,3.1,東,5.4,東,11.6,82.5,0,0,0,0
143,2024-04-01T02:22:00,2.9,東,5,東南東,11.6,82.7,0,0,0,0
144,2024-04-01T02:23:00,2.8,東,5,東南東,11.6,82.9,0,0,0,0
145,2024-04-01T02:24:00,2.7,東,5,東南東,11.6,82.8,0,0,0,0
146,2024-04-01T02:25:00,2.5,東,4.7,東南東,11.6,82.8,0,0,0,0
147,2024-04-01T02:26:00,2.3,東,4.7,東南東,11.6,82.4,0,0,0,0
148,2024-04-01T02:27:00,2.2,東,4.7,東南東,11.6,82.4,0,0,0,0
149,2024-04-01T02:28:00,2.2,東,4.7,東南東,11.6,82.5,0,0,0,0
150,2024-04-01T02:29:00,2.1,東,4.7,東南東,11.6,82.5,0,0,0,0
151,2024-04-01T02:30:00,2.2,東南東,4.7,東南東,11.6,82.8,0,0,0,0
152,2024-04-01T02:31:00,2.3,東南東,4.7,東南東,11.6,82.5,0,0,0,0
153,2024-04-01T02:32:00,2.4,東南東,4.7,東南東,11.5,82.6,0,0,0,0
154,2024-04-01T02:33:00,2.6,東南東,4.8,東南東,11.5,82.4,0,0,0,0
155,2024-04-01T02:34:00,2.5,東南東,4.8,東南東,11.5,82.4,0,0,0,0
156,2024-04-01T02:35:00,2.6,東南東,5,東南東,11.5,82.1,0,0,0,0
157,2024-04-01T02:36:00,2.9,東南東,5,東南東,11.5,81.6,0,0,0,0
158,2024-04-01T02:37:00,3.1,東南東,5,東南東,11.5,82.1,0,0,0,0
159,2024-04-01T02:38:00,3.1,東南東,5,東南東,11.4,82.2,0,0,0,0
160,2024-04-01T02:39:00,3.4,東南東,5,東南東,11.5,82.2,0,0,0,0
161,2024-04-01T02:40:00,3.5,東南東,6.1,東,11.4,82.2,0,0,0,0
162,2024-04-01T02:41:00,3.5,東南東,6.1,東,11.5,81.7,0,0,0,0
163,2024-04-01T02:42:00,3.5,東南東,6.1,東,11.5,81.7,0,0,0,0
164,2024-04-01T02:43:00,3.6,東南東,6.1,東,11.4,81.9,0,0,0,0
165,2024-04-01T02:44:00,3.6,東南東,6.1,東,11.4,82,0,0,0,0
166,2024-04-01T02:45:00,3.5,東南東,6.1,東,11.4,81.9,0,0,0,0
167,2024-04-01T02:46:00,3.3,東南東,6.1,東,11.4,82,0,0,0,0
168,2024-04-01T02:47:00,3.2,東南東,6.1,東,11.4,82.2,0,0,0,0
169,2024-04-01T02:48:00,3.1,東南東,6.1,東,11.3,82.2,0,0,0,0
170,2024-04-01T02:49:00,3,東南東,6.1,東,11.3,82.3,0,0,0,0
171,2024-04-01T02:50:00,2.8,東南東,5.3,南東,11.3,82.4,0,0,0,0
172,2024-04-01T02:51:00,2.7,東南東,5.3,南東,11.3,82.2,0,0,0,0
173,2024-04-01T02:52:00,2.6,東南東,5.3,南東,11.3,82.3,0,0,0,0
174,2024-04-01T02:53:00,2.4,東南東,4.8,東,11.3,82.6,0,0,0,0
175,2024-04-01T02:54:00,2.4,東南東,4.4,東,11.3,82.7,0,0,0,0
176,2024-04-01T02:55:00,2.4,東南東,4.3,東南東,11.3,82.3,0,0,0,0
177,2024-04-01T02:56:00,2.4,東南東,4.3,東南東,11.3,82.2,0,0,0,0
178,2024-04-01T02:57:00,2.4,東南東,3.6,東南東,11.3,82.3,0,0,0,0
179,2024-04-01T02:58:00,2.4,東南東,3.6,東南東,11.2,82.5,0,0,0,0
180,2024-04-01T02:59:00,2.3,東南東,3.6,東南東,11.2,83.1,0,0,0,0
181,2024-04-01T03:00:00,2.3,東南東,3.6,東南東,11.1,83.7,0,0,0,0
182,2024-04-01T03:01:00,2.2,東南東,3.6,東南東,11.1,83.9,0,0,0,0
183,2024-04-01T03:02:00,2.3,東南東,4.2,東南東,11.1,84,0,0,0,0
184,2024-04-01T03:03:00,2.3,東南東,4.2,東南東,11.2,83.4,0,0,0,0
185,2024-04-01T03:04:00,2.3,東南東,4.2,東南東,11.2,83.4,0,0,0,0
186,2024-04-01T03:05:00,2.3,東南東,4.2,東南東,11.2,83.1,0,0,0,0
187,2024-04-01T03:06:00,2.2,東南東,4.2,東南東,11.1,83.4,0,0,0,0
188,2024-04-01T03:07:00,2.2,東南東,4.2,東南東,11.1,83.4,0,0,0,0
189,2024-04-01T03:08:00,2.2,東南東,4.2,東南東,11.1,83.5,0,0,0,0
190,2024-04-01T03:09:00,2.2,東南東,4.2,東南東,11,83.6,0,0,0,0
191,2024-04-01T03:10:00,2.3,東南東,4.3,東,11,83.5,0,0,0,0
192,2024-04-01T03:11:00,2.4,東南東,4.3,東,11.1,83.2,0,0,0,0
193,2024-04-01T03:12:00,2.3,東,4.3,東,11.1,83.3,0,0,0,0
194,2024-04-01T03:13:00,2.3,東,4.3,東,11,83.4,0,0,0,0
195,2024-04-01T03:14:00,2.3,東南東,4.3,東,10.9,83.7,0,0,0,0
196,2024-04-01T03:15:00,2.2,東,4.3,東,10.9,84.1,0,0,0,0
197,2024-04-01T03:16:00,2.3,東,4.3,東,10.9,84,0,0,0,0
198,2024-04-01T03:17:00,2.3,東,4.3,東,10.9,84.1,0,0,0,0
199,2024-04-01T03:18:00,2.3,東,4.3,東,10.9,84.1,0,0,0,0
200,2024-04-01T03:19:00,2.3,東,4.3,東,10.9,84,0,0,0,0
201,2024-04-01T03:20:00,2.2,東,3.7,東,10.9,84,0,0,0,0
202,2024-04-01T03:21:00,2.2,東,3.7,東,10.8,84.4,0,0,0,0
203,2024-04-01T03:22:00,2.2,東,3.7,東,10.8,84.5,0,0,0,0
204,2024-04-01T03:23:00,2.2,東,3.7,東,10.8,84.2,0,0,0,0
205,2024-04-01T03:24:00,2.2,東,3.7,東,10.8,84.1,0,0,0,0
206,2024-04-01T03:25:00,2.2,東,3.9,東北東,10.7,84.4,0,0,0,0
207,2024-04-01T03:26:00,2.2,東,3.9,東北東,10.7,84.9,0,0,0,0
208,2024-04-01T03:27:00,2.3,東,3.9,東北東,10.7,84.9,0,0,0,0
209,2024-04-01T03:28:00,2.3,東,3.9,東北東,10.6,85.2,0,0,0,0
210,2024-04-01T03:29:00,2.3,東,3.9,東北東,10.6,85,0,0,0,0
211,2024-04-01T03:30:00,2.4,東,3.9,東北東,10.6,85.1,0,0,0,0
212,2024-04-01T03:31:00,2.6,東,3.9,東北東,10.6,85.2,0,0,0,0
213,2024-04-01T03:32:00,2.6,東,3.9,東北東,10.6,85.4,0,0,0,0
214,2024-04-01T03:33:00,2.8,東,4.3,東,10.6,85.1,0,0,0,0
215,2024-04-01T03:34:00,2.9,東,4.3,東,10.5,84.7,0,0,0,0
216,2024-04-01T03:35:00,2.9,東,4.3,東,10.6,84.4,0,0,0,0
217,2024-04-01T03:36:00,3,東,4.3,東,10.6,84.2,0,0,0,0
218,2024-04-01T03:37:00,3,東南東,4.3,東,10.6,84.1,0,0,0,0
219,2024-04-01T03:38:00,3,東南東,4.3,東,10.6,84.2,0,0,0,0
220,2024-04-01T03:39:00,3,東南東,4.3,東,10.6,83.7,0,0,0,0
221,2024-04-01T03:40:00,2.8,東南東,4.3,東,10.6,83.5,0,0,0,0
222,2024-04-01T03:41:00,2.8,東南東,4.3,東,10.5,83.6,0,0,0,0
223,2024-04-01T03:42:00,2.6,東南東,4.3,東,10.5,83.7,0,0,0,0
224,2024-04-01T03:43:00,2.5,東,4.3,東,10.5,83.5,0,0,0,0
225,2024-04-01T03:44:00,2.4,東,4,東南東,10.5,83.5,0,0,0,0
226,2024-04-01T03:45:00,2.3,東,4,東南東,10.5,83.8,0,0,0,0
227,2024-04-01T03:46:00,2.3,東,4,東南東,10.5,83.9,0,0,0,0
228,2024-04-01T03:47:00,2.4,東,4.4,東南東,10.5,83.8,0,0,0,0
229,2024-04-01T03:48:00,2.4,東,4.4,東南東,10.4,83.7,0,0,0,0
230,2024-04-01T03:49:00,2.4,東,4.4,東南東,10.5,83.8,0,0,0,0
231,2024-04-01T03:50:00,2.3,東,4.4,東南東,10.4,83.9,0,0,0,0
232,2024-04-01T03:51:00,2.3,東,4.4,東南東,10.4,84.1,0,0,0,0
233,2024-04-01T03:52:00,2.4,東,4.4,東南東,10.4,84.2,0,0,0,0
234,2024-04-01T03:53:00,2.4,東,4.4,東南東,10.4,84.1,0,0,0,0
235,2024-04-01T03:54:00,2.3,東,4.4,東南東,10.3,84.1,0,0,0,0
236,2024-04-01T03:55:00,2.2,東,4.4,東南東,10.3,84.3,0,0,0,0
237,2024-04-01T03:56:00,2.2,東,4.4,東南東,10.3,84.5,0,0,0,0
238,2024-04-01T03:57:00,2.2,東,4.2,東南東,10.3,84.4,0,0,0,0
239,2024-04-01T03:58:00,2.2,東,4.2,東南東,10.3,84.2,0,0,0,0
240,2024-04-01T03:59:00,2.3,東,5.1,東南東,10.3,84,0,0,0,0
241,2024-04-01T04:00:00,2.5,東,5.1,東南東,10.4,83.9,0,0,0,0
242,2024-04-01T04:01:00,2.6,東,5.1,東南東,10.3,83.8,0,0,0,0
243,2024-04-01T04:02:00,2.7,東,5.1,東南東,10.3,83.8,0,0,0,0
244,2024-04-01T04:03:00,2.7,東,5.1,東南東,10.3,83.8,0,0,0,0
245,2024-04-01T04:04:00,2.7,東,5.1,東南東,10.3,83.9,0,0,0,0
246,2024-04-01T04:05:00,2.8,東,5.1,東南東,10.3,84.1,0,0,0,0
247,2024-04-01T04:06:00,2.6,東南東,5.1,東南東,10.2,84.4,0,0,0,0
248,2024-04-01T04:07:00,2.6,東南東,5.1,東南東,10.3,84.5,0,0,0,0
249,2024-04-01T04:08:00,2.7,東南東,5.1,東南東,10.2,84.1,0,0,0,0
250,2024-04-01T04:09:00,2.7,東,5.5,東,10.2,83.8,0,0,0,0
251,2024-04-01T04:10:00,2.7,東,5.5,東,10.3,83.5,0,0,0,0
252,2024-04-01T04:11:00,2.7,東南東,5.5,東,10.3,83.5,0,0,0,0
253,2024-04-01T04:12:00,2.8,東南東,5.5,東,10.3,83.6,0,0,0,0
254,2024-04-01T04:13:00,2.9,東南東,5.5,東,10.3,83.7,0,0,0,0
255,2024-04-01T04:14:00,2.9,東南東,5.5,東,10.3,83.7,0,0,0,0
256,2024-04-01T04:15:00,2.8,東南東,5.5,東,10.2,83.8,0,0,0,0
257,2024-04-01T04:16:00,2.9,東南東,5.5,東,10.2,83.6,0,0,0,0
258,2024-04-01T04:17:00,2.8,東南東,5.5,東,10.2,83.4,0,0,0,0
259,2024-04-01T04:18:00,2.7,東南東,5.5,東,10.2,83.2,0,0,0,0
260,2024-04-01T04:19:00,2.6,東南東,5.1,東南東,10.2,82.6,0,0,0,0
261,2024-04-01T04:20:00,2.6,東南東,5.1,東南東,10.2,82.4,0,0,0,0
262,2024-04-01T04:21:00,2.6,東南東,5.1,東南東,10.2,82.5,0,0,0,0
263,2024-04-01T04:22:00,2.5,東南東,4.6,東南東,10.2,82.7,0,0,0,0
264,2024-04-01T04:23:00,2.6,東南東,5.1,東南東,10.1,82.7,0,0,0,0
265,2024-04-01T04:24:00,2.9,東南東,5.5,東南東,10.2,82.8,0,0,0,0
266,2024-04-01T04:25:00,3.2,東,5.5,東南東,10.1,83.4,0,0,0,0
267,2024-04-01T04:26:00,3.3,東,5.5,東南東,10.1,83.5,0,0,0,0
268,2024-04-01T04:27:00,3.4,東南東,5.5,東南東,10.1,83.1,0,0,0,0
269,2024-04-01T04:28:00,3.3,東南東,5.5,東南東,10.1,82.6,0,0,0,0
270,2024-04-01T04:29:00,3.3,東南東,5.5,東南東,10.1,82.6,0,0,0,0
271,2024-04-01T04:30:00,3.2,東南東,5.5,東南東,10.1,82.3,0,0,0,0
272,2024-04-01T04:31:00,3.1,東,5.5,東南東,10.1,82.1,0,0,0,0
273,2024-04-01T04:32:00,3,東,5.5,東南東,10,82.3,0,0,0,0
274,2024-04-01T04:33:00,3,東,5.5,東南東,10.1,82.4,0,0,0,0
275,2024-04-01T04:34:00,2.9,東,5.5,南東,10,81.9,0,0,0,0
276,2024-04-01T04:35:00,2.6,東,4.8,東,10,82,0,0,0,0
277,2024-04-01T04:36:00,2.4,東,4.6,東,9.8,82.5,0,0,0,0
278,2024-04-01T04:37:00,2.3,東,4.6,東,9.8,83.1,0,0,0,0
279,2024-04-01T04:38:00,2.2,東,4.6,東,9.8,83.3,0,0,0,0
280,2024-04-01T04:39:00,2.1,東,4.6,東,9.8,83.5,0,0,0,0
281,2024-04-01T04:40:00,2,東,4.6,東,9.7,83.7,0,0,0,0
282,2024-04-01T04:41:00,2.1,東,4.6,東,9.7,83.8,0,0,0,0
283,2024-04-01T04:42:00,2.1,東,4.6,東,9.8,83.7,0,0,0,0
284,2024-04-01T04:43:00,1.9,東,4.5,東南東,9.7,83.8,0,0,0,0
285,2024-04-01T04:44:00,1.8,東,3.1,東南東,9.8,83.8,0,0,0,0
286,2024-04-01T04:45:00,1.8,東,3.1,東南東,9.7,83.7,0,0,0,0
287,2024-04-01T04:46:00,1.8,東,3.1,東南東,9.8,83.6,0,0,0,0
288,2024-04-01T04:47:00,1.8,東,3.1,東南東,9.7,83.7,0,0,0,0
289,2024-04-01T04:48:00,1.7,東,3.1,東南東,9.7,83.7,0,0,0,0
290,2024-04-01T04:49:00,1.8,東南東,3.1,東南東,9.7,84,0,0,0,0
291,2024-04-01T04:50:00,1.8,東南東,3.1,東南東,9.7,84,0,0,0,0
292,2024-04-01T04:51:00,1.7,東南東,2.8,東南東,9.7,84,0,0,0,0
293,2024-04-01T04:52:00,1.7,東南東,2.4,東,9.7,84.1,0,0,0,0
294,2024-04-01T04:53:00,1.6,東,2.4,東,9.5,84.3,0,0,0,0
295,2024-04-01T04:54:00,1.6,東,2.4,東,9.3,84.9,0,0,0,0
296,2024-04-01T04:55:00,1.6,東,2.4,東,9.3,86.1,0,0,0,0
297,2024-04-01T04:56:00,1.5,東,2.4,東,9.2,86.9,0,0,0,0
298,2024-04-01T04:57:00,1.4,東,2.4,東,9.1,87.5,0,0,0,0
299,2024-04-01T04:58:00,1.4,東,2.4,東,9,88.1,0,0,0,0
300,2024-04-01T04:59:00,1.4,東,2.4,東,9,88.6,0,0,0,0
301,2024-04-01T05:00:00,1.4,東,2.1,東,8.9,88.7,0,0,0,0
302,2024-04-01T05:01:00,1.4,東北東,2.3,東北東,9,89,0,0,0,0
303,2024-04-01T05:02:00,1.5,東北東,2.7,東北東,9.1,89,0,0,0,0
304,2024-04-01T05:03:00,1.5,東北東,2.7,東北東,9.1,89,0,0,0,0
305,2024-04-01T05:04:00,1.6,東北東,2.7,東北東,9.1,89,0,0,0,0
306,2024-04-01T05:05:00,1.6,東北東,2.7,東北東,9,88.8,0,0,0,0
307,2024-04-01T05:06:00,1.7,東北東,2.7,東北東,9,89,0,0,0,0
308,2024-04-01T05:07:00,1.8,東北東,3.1,東北東,9,89.1,0,0,0,0
309,2024-04-01T05:08:00,1.9,東北東,3.1,東北東,8.9,89,0,0,0,0
310,2024-04-01T05:09:00,1.9,東北東,3.1,東北東,8.9,89.1,0,0,0,0
311,2024-04-01T05:10:00,1.9,東北東,3.1,東北東,9,89.1,0,0,0,0
312,2024-04-01T05:11:00,1.8,東北東,3.1,東北東,8.9,89,0,0,0,0
313,2024-04-01T05:12:00,1.8,東,3.1,東北東,8.8,89.2,0,0,0,0
314,2024-04-01T05:13:00,1.8,東,3.1,東北東,8.8,89.5,0,0,0,0
315,2024-04-01T05:14:00,1.7,東,3.1,東北東,8.8,89.7,0,0,0,0
316,2024-04-01T05:15:00,1.7,東,3.1,東北東,8.7,89.7,0,0,0,0
317,2024-04-01T05:16:00,1.6,東北東,3.1,東北東,8.6,89.9,0,0,0,0
318,2024-04-01T05:17:00,1.6,東北東,2.4,東北東,8.7,90.3,0,0,0,0
319,2024-04-01T05:18:00,1.5,東北東,2.4,東北東,8.7,90.3,0,0,0,0
320,2024-04-01T05:19:00,1.5,東北東,2,東北東,8.5,90.1,0,0,0,0
321,2024-04-01T05:20:00,1.5,東北東,2.5,東北東,8.5,90.3,0,0,0,0
322,2024-04-01T05:21:00,1.5,東北東,2.5,東北東,8.5,90.8,0,0,0,0
323,2024-04-01T05:22:00,1.6,東北東,2.5,東北東,8.5,91.1,0,0,0,0
324,2024-04-01T05:23:00,1.6,東北東,2.5,東北東,8.4,91.3,0,0,0,0
325,2024-04-01T05:24:00,1.6,東北東,2.5,東北東,8.4,91.2,0,0,0,0
326,2024-04-01T05:25:00,1.6,東北東,2.5,東北東,8.4,91.3,0,0,0,0
327,2024-04-01T05:26:00,1.6,東北東,2.5,東北東,8.3,91.4,0,0,0,0
328,2024-04-01T05:27:00,1.6,東,2.5,東北東,8.4,91.6,0,0,0,0
329,2024-04-01T05:28:00,1.7,東,2.6,東北東,8.4,91.8,0,0,0,0
330,2024-04-01T05:29:00,1.7,東,2.6,東北東,8.4,91.7,0,0,0,0
331,2024-04-01T05:30:00,1.7,東,2.8,東北東,8.5,91.6,0,0,0,0
332,2024-04-01T05:31:00,1.6,東,2.8,東北東,8.4,91.1,0,0,0,0
333,2024-04-01T05:32:00,1.7,東,2.8,東北東,8.3,90.9,0,0,0,0
334,2024-04-01T05:33:00,1.7,東,2.8,東北東,8.2,91.3,0,0,0,0
335,2024-04-01T05:34:00,1.7,東北東,2.8,東北東,8.2,91.5,0,0,0,0
336,2024-04-01T05:35:00,1.8,東北東,2.8,東北東,8.2,91.8,0,0,0,0
337,2024-04-01T05:36:00,1.8,東北東,2.8,東北東,8.2,92,0,0,0,0
338,2024-04-01T05:37:00,1.8,東北東,2.8,東北東,8.2,92,0,0,0,0
339,2024-04-01T05:38:00,1.8,東北東,2.8,東北東,8.2,92,0,0,0,0
340,2024-04-01T05:39:00,1.8,東北東,3.1,東南東,8.2,91.7,0,0,0,0
341,2024-04-01T05:40:00,1.8,東北東,3.1,東南東,8.2,91.9,0,0,0,0
342,2024-04-01T05:41:00,1.8,東北東,3.1,東南東,8.3,91.9,0,0,0,0
343,2024-04-01T05:42:00,1.8,東,3.1,東南東,8.2,91.8,0,0,0,0
344,2024-04-01T05:43:00,1.7,東,3.1,東南東,8.2,91.6,0,0,0,0
345,2024-04-01T05:44:00,1.7,東,3.1,東南東,8.1,91.6,0,0,0,0
346,2024-04-01T05:45:00,1.6,東,3.1,東南東,8,91.7,0,0,0,0
347,2024-04-01T05:46:00,1.6,東,3.1,東南東,8,91.7,0,0,0,0
348,2024-04-01T05:47:00,1.6,東北東,3.1,東南東,7.9,91.7,0,0,0,0
349,2024-04-01T05:48:00,1.6,東北東,3.1,東南東,7.9,92,0,0,0,0
350,2024-04-01T05:49:00,1.5,東北東,2.6,東,7.8,92.2,0,0,0,0
351,2024-04-01T05:50:00,1.5,東北東,2.3,東北東,7.8,92.5,0,0,0,0
352,2024-04-01T05:51:00,1.6,東北東,2.5,北東,7.8,92.7,0,0,0,0
353,2024-04-01T05:52:00,1.6,東北東,2.5,北東,7.7,92.8,0,0,0,0
354,2024-04-01T05:53:00,1.6,東北東,2.5,北東,7.7,93,0,0,0,0
355,2024-04-01T05:54:00,1.6,東北東,2.5,北東,7.7,93.3,0,0,0,0
356,2024-04-01T05:55:00,1.7,東北東,2.5,北東,7.7,93.5,0,0,0,0
357,2024-04-01T05:56:00,1.7,東北東,2.5,北東,7.7,93.7,0,0,0,0
358,2024-04-01T05:57:00,1.7,東北東,2.5,北東,7.7,93.6,0,0,0,0
359,2024-04-01T05:58:00,1.6,東北東,2.5,北東,7.7,93.5,0,0,0,0
360,2024-04-01T05:59:00,1.5,東北東,2.5,北東,7.7,93.4,0,0,0,0
361,2024-04-01T06:00:00,1.5,東北東,2.5,北東,7.7,93.3,0,0,0,0
362,2024-04-01T06:01:00,1.3,東北東,2.4,東北東,7.7,93.5,0,0,0,0
363,2024-04-01T06:02:00,1.3,東北東,2.3,東,7.7,93.4,0,0,0,0
364,2024-04-01T06:03:00,1.3,東北東,2.3,東,7.6,93.3,0,0,0,0
365,2024-04-01T06:04:00,1.3,東北東,2.3,東,7.6,93.5,0,0,0,0
366,2024-04-01T06:05:00,1.3,東北東,2.3,東,7.6,93.7,0,0,0,0
367,2024-04-01T06:06:00,1.3,東北東,2.3,東,7.6,93.7,0,0,0,0
368,2024-04-01T06:07:00,1.3,東北東,2.3,東北東,7.6,93.6,0,0,0,0
369,2024-04-01T06:08:00,1.5,東北東,2.7,東北東,7.6,93.7,0,0,0,0
370,2024-04-01T06:09:00,1.6,東北東,2.7,東北東,7.6,93.9,0,0,0,0
371,2024-04-01T06:10:00,1.7,東北東,2.7,東北東,7.6,94,0,0,0,0
372,2024-04-01T06:11:00,1.8,東北東,2.7,東北東,7.6,94.1,0,0,0,0
373,2024-04-01T06:12:00,1.9,東北東,2.7,東北東,7.6,94.1,0,0,0,0
374,2024-04-01T06:13:00,1.9,東北東,2.7,東北東,7.6,94.2,0,0,0,0
375,2024-04-01T06:14:00,1.8,東北東,2.7,東北東,7.6,94.2,0,0,0,0
376,2024-04-01T06:15:00,1.8,東北東,2.7,東北東,7.6,94,0,0,0,0
377,2024-04-01T06:16:00,1.8,東北東,2.7,東北東,7.6,93.9,0,0,0,0
378,2024-04-01T06:17:00,1.7,東北東,2.7,東北東,7.5,93.6,0,0,0,0
379,2024-04-01T06:18:00,1.6,東北東,2.6,東北東,7.5,93.4,0,0,0,0
380,2024-04-01T06:19:00,1.5,東北東,2.6,東北東,7.5,93.4,0,0,0,0
381,2024-04-01T06:20:00,1.4,東,2.5,東北東,7.5,93.4,0,0,0,0
382,2024-04-01T06:21:00,1.3,東,2.5,東北東,7.5,93.3,0,0,0,0
383,2024-04-01T06:22:00,1.2,東,2.1,東,7.6,93.3,0,0,0,0
384,2024-04-01T06:23:00,1.2,東,1.9,東,7.5,93.1,0,0,0,0
385,2024-04-01T06:24:00,1.2,東,1.9,東,7.5,92.9,0,0,0,0
386,2024-04-01T06:25:00,1.2,東,1.9,東,7.5,92.9,0,0,0,0
387,2024-04-01T06:26:00,1.2,東,1.9,東,7.5,92.7,0,0,0,0
388,2024-04-01T06:27:00,1.3,東北東,2.1,東北東,7.5,92.6,0,0,0,0
389,2024-04-01T06:28:00,1.3,東北東,2.1,東北東,7.5,92.4,0,0,0,0
390,2024-04-01T06:29:00,1.4,東北東,2.1,東北東,7.5,92.6,0,0,0,0
391,2024-04-01T06:30:00,1.4,東北東,2.4,東北東,7.5,92.6,0,0,0,0
392,2024-04-01T06:31:00,1.5,東北東,2.4,東北東,7.5,92.4,0,0,0,0
393,2024-04-01T06:32:00,1.5,東北東,2.4,東北東,7.5,92.3,0,0,0,0
394,2024-04-01T06:33:00,1.5,東北東,2.4,東北東,7.6,92.4,0,0,0,0
395,2024-04-01T06:34:00,1.5,東北東,2.4,東北東,7.6,92.2,0,0,0,0
396,2024-04-01T06:35:00,1.6,東北東,2.4,東北東,7.6,92,0,0,0,0
397,2024-04-01T06:36:00,1.6,東北東,2.5,東北東,7.6,91.8,0,0,0,0
398,2024-04-01T06:37:00,1.7,東北東,2.6,東,7.7,91.5,0,0,0,0
399,2024-04-01T06:38:00,1.7,東北東,2.6,東,7.7,91.2,0,0,0,0
400,2024-04-01T06:39:00,1.7,東,2.6,東,7.7,91,0,0,0,0
401,2024-04-01T06:40:00,1.7,東,2.6,東,7.7,91,0,0,0,0
402,2024-04-01T06:41:00,1.7,東,2.6,東,7.7,90.9,0,0,0,0
403,2024-04-01T06:42:00,1.7,東,2.6,東,7.8,90.7,0,0,0,0
404,2024-04-01T06:43:00,1.7,東,2.6,東,7.8,90.6,0,0,0,0
405,2024-04-01T06:44:00,1.7,東,2.6,東,7.8,90.5,0,0,0,0
406,2024-04-01T06:45:00,1.8,東,2.6,東,7.8,90.2,0,0,0,0
407,2024-04-01T06:46:00,1.7,東,2.6,東,7.8,90.2,0,0,0,0
408,2024-04-01T06:47:00,1.6,東,2.5,東,7.8,90.3,0,0,0,0
409,2024-04-01T06:48:00,1.6,東,2.5,東,7.8,90.4,0,0,0,0
410,2024-04-01T06:49:00,1.6,東,2.5,東,7.8,90.1,0,0,0,0
411,2024-04-01T06:50:00,1.6,東,2.4,東南東,7.8,90.1,0,0,0,0
412,2024-04-01T06:51:00,1.5,東,2.1,東,7.8,89.8,0,0,0,0
413,2024-04-01T06:52:00,1.5,東,2.1,東,7.8,89.3,0,0,0,0
414,2024-04-01T06:53:00,1.5,東,2,東,7.9,88.5,0,0,0,0
415,2024-04-01T06:54:00,1.4,東,2,東,7.9,88.8,0,0,0,0
416,2024-04-01T06:55:00,1.4,東,2.1,東,7.9,88.3,0,0,0,0
417,2024-04-01T06:56:00,1.5,東,2.4,東,7.9,87.5,0,0,0,0
418,2024-04-01T06:57:00,1.6,東,2.4,東,7.9,87.4,0,0,0,0
419,2024-04-01T06:58:00,1.6,東,2.4,東,7.9,86.9,0,0,0,0
420,2024-04-01T06:59:00,1.6,東,2.4,東,8,86.4,0,0,0,0
421,2024-04-01T07:00:00,1.6,東,2.4,東,8,85.9,0,0,0,0
422,2024-04-01T07:01:00,1.6,東,2.4,東,8.1,85.9,0,0,0,0
423,2024-04-01T07:02:00,1.6,東,2.4,東,8.1,85.8,0,0,0,0
424,2024-04-01T07:03:00,1.7,東,2.4,東,8.1,85.6,0,0,0,0
425,2024-04-01T07:04:00,1.7,東,2.4,東,8.2,85.6,0,0,0,0
426,2024-04-01T07:05:00,1.7,東,2.4,東,8.2,85.7,0,0,0,0
427,2024-04-01T07:06:00,1.7,東,2.3,東,8.2,85.2,0,0,0,0
428,2024-04-01T07:07:00,1.7,東,2.6,東,8.3,84.6,0,0,0,0
429,2024-04-01T07:08:00,1.7,東,2.6,東,8.3,84.4,0,0,0,0
430,2024-04-01T07:09:00,1.7,東,2.6,東,8.3,83.8,0,0,0,0
431,2024-04-01T07:10:00,1.7,東,2.6,東,8.3,82.9,0,0,0,0
432,2024-04-01T07:11:00,1.8,東,2.6,東,8.5,82.8,0,0,0,0
433,2024-04-01T07:12:00,1.8,東,2.6,東,8.5,82.4,0,0,0,0
434,2024-04-01T07:13:00,1.8,東,2.6,東,8.6,82.4,0,0,0,0
435,2024-04-01T07:14:00,1.8,東,2.6,東,8.6,82.4,0,0,0,0